Home > Weather > Offenburg > Past weeks

Flag for Germany Past Weather in Offenburg, Baden-Württemberg, Germany — Yesterday and Last 2 Weeks

Now
54 °F

Clear.


Feels Like: 54 °F
Forecast: 49 / 71 °F
Wind: No wind

Location: Lahr

Current Time: Jun 26, 2016 at 4:56:05 AM

Latest Report: Jun 26, 2016 at 4:00 AM


Visibility: 10 mi

Pressure: 30.10 "Hg

Humidity: 98%

Dew Point: 53 °F

Location of OffenburgLocation

Past Weather in Offenburg — Graph

°F

Offenburg Temperature Yesterday

Maximum temperature yesterday: 76 °F (at 1:00 PM)
Minimum temperature yesterday: 62 °F (at 10:00 PM)
Average temperature yesterday: 69 °F

High & Low Weather Summary for the Past Weeks

 TemperatureHumidityPressure
High92 °F (Jun 23, 6:00 PM)99% (Jun 20, 3:00 AM)30.28 "Hg (Jun 20, 3:00 AM)
Low49 °F (Jun 20, 6:00 AM)40% (Jun 24, 1:00 PM)29.58 "Hg (Jun 15, 6:00 AM)
Average65 °F79%29.93 "Hg
* Reported Jun 11 3:00 AM — Jun 26 3:00 AM, Offenburg, Weather by CustomWeather, © 2016

Note: Actual official high and low records may vary slightly from our data, if they occured in-between our weather recording intervals... More about our weather records

Advertising

Offenburg Weather History for the Previous 24 Hours

Scroll right to see more
 ConditionsComfort  
Time TempWeatherWind HumidityBarometerVisibility
3:00 AM
Sun, Jun 26
55 °FClear.1 mph96%30.10 "Hg9 mi
1:00 AM57 °FClear.1 mph94%30.12 "Hg14 mi
12:00 AM59 °FClear.2 mph92%30.11 "Hg11 mi
10:00 PM
Sat, Jun 25
62 °FOvercast.3 mph85%30.07 "Hg22 mi
9:00 PM64 °FSprinkles. Overcast.5 mph81%30.05 "Hg22 mi
7:00 PM69 °FOvercast.2 mph76%29.99 "Hg25 mi
6:00 PM69 °FOvercast.1 mph74%29.98 "Hg25 mi
4:00 PM66 °FThunderstorms. Low clouds.2 mph90%29.99 "Hg16 mi
3:00 PM64 °FThundershowers. Low clouds.6 mph95%29.96 "Hg2 mi
1:00 PM76 °FOvercast.3 mph64%29.91 "Hg40 mi
12:00 PM74 °FOvercast.3 mph66%29.93 "Hg37 mi
10:00 AM71 °FOvercast.6 mph77%29.93 "Hg34 mi
9:00 AM70 °FPartly sunny.5 mph88%29.94 "Hg37 mi
7:00 AM67 °FLight rain. Low clouds.2 mph95%29.92 "Hg19 mi
6:00 AM67 °FLight rain. Low clouds.2 mph97%29.96 "Hg9 mi
4:00 AM67 °FLight rain. Overcast.3 mph94%29.95 "Hg11 mi
Weather by CustomWeather, © 2016

See weather overviewHow to use our weather pages